| time (UTC) | temp C | wind direction | speed KPH | gust KPH | rain 1hr cm | rain 24hr cm | rain mn cm | humidity % | barometer mb |
| 20260504042222 | 12 | 221 | 8.0 | 9.7 | 0.00 | 0.00 | 0.00 | 51 | 1007.8 |
| 20260504041718 | 12 | 181 | 4.8 | 8.0 | 0.00 | 0.00 | 0.00 | 51 | 1008.0 |
| 20260504041214 | 12 | 179 | 3.2 | 11.3 | 0.00 | 0.00 | 0.00 | 50 | 1007.8 |
| 20260504040710 | 12 | 112 | 6.4 | 20.9 | 0.00 | 0.00 | 0.00 | 50 | 1007.7 |
| 20260504040208 | 12 | 137 | 4.8 | 9.7 | 0.00 | 0.00 | 0.00 | 52 | 1007.8 |
| 20260504035704 | 12 | 102 | 4.8 | 11.3 | 0.00 | 0.10 | 0.10 | 52 | 1007.7 |
| 20260504035201 | 12 | 119 | 8.0 | 14.5 | 0.00 | 0.10 | 0.10 | 53 | 1007.6 |
| 20260504034659 | 11 | 111 | 6.4 | 9.7 | 0.00 | 0.10 | 0.10 | 55 | 1007.6 |
| 20260504034155 | 11 | 231 | 9.7 | 9.7 | 0.00 | 0.10 | 0.10 | 55 | 1007.5 |
| 20260504033653 | 11 | 118 | 9.7 | 12.9 | 0.00 | 0.10 | 0.10 | 55 | 1007.8 |
| 20260504033150 | 11 | 139 | 4.8 | 8.0 | 0.00 | 0.10 | 0.10 | 56 | 1007.6 |
| 20260504032647 | 11 | 127 | 6.4 | 8.0 | 0.00 | 0.10 | 0.10 | 57 | 1007.7 |
| 20260504032144 | 11 | 113 | 6.4 | 8.0 | 0.00 | 0.10 | 0.10 | 57 | 1007.6 |
| 20260504031641 | 11 | 243 | 14.5 | 16.1 | 0.00 | 0.10 | 0.10 | 57 | 1007.7 |
| 20260504031137 | 11 | 178 | 3.2 | 12.9 | 0.00 | 0.10 | 0.10 | 58 | 1007.7 |
| 20260504030634 | 10 | 207 | 8.0 | 8.0 | 0.00 | 0.10 | 0.10 | 59 | 1008.0 |
| 20260504030131 | 10 | 123 | 6.4 | 8.0 | 0.00 | 0.10 | 0.10 | 60 | 1007.9 |
| 20260504025628 | 10 | 110 | 6.4 | 8.0 | 0.00 | 0.10 | 0.10 | 62 | 1007.9 |
| 20260504025125 | 10 | 106 | 3.2 | 6.4 | 0.00 | 0.10 | 0.10 | 63 | 1008.1 |
| 20260504024622 | 10 | 124 | 6.4 | 6.4 | 0.00 | 0.10 | 0.10 | 64 | 1007.9 |
| 20260504024118 | 10 | 114 | 4.8 | 8.0 | 0.00 | 0.10 | 0.10 | 64 | 1008.0 |
| 20260504023615 | 10 | 103 | 6.4 | 6.4 | 0.00 | 0.10 | 0.10 | 66 | 1008.1 |
| 20260504023111 | 10 | 131 | 4.8 | 6.4 | 0.00 | 0.10 | 0.10 | 65 | 1008.2 |
| 20260504022608 | 10 | 116 | 6.4 | 8.0 | 0.00 | 0.10 | 0.10 | 66 | 1008.1 |
| 20260504022103 | 10 | 115 | 6.4 | 6.4 | 0.00 | 0.10 | 0.10 | 67 | 1008.2 |
| 20260504021602 | 10 | 118 | 6.4 | 8.0 | 0.00 | 0.10 | 0.10 | 69 | 1008.2 |
| 20260504021058 | 10 | 125 | 3.2 | 6.4 | 0.00 | 0.10 | 0.10 | 73 | 1008.2 |
| 20260504020555 | 10 | 109 | 4.8 | 6.4 | 0.00 | 0.10 | 0.10 | 75 | 1008.3 |
| 20260504020051 | 9 | 100 | 3.2 | 8.0 | 0.00 | 0.10 | 0.10 | 77 | 1008.2 |
| 20260504015548 | 9 | 120 | 4.8 | 6.4 | 0.00 | 0.10 | 0.10 | 81 | 1008.2 |
| 20260504015044 | 9 | 124 | 4.8 | 6.4 | 0.00 | 0.10 | 0.10 | 84 | 1008.2 |
| 20260504014540 | 9 | 127 | 4.8 | 6.4 | 0.00 | 0.10 | 0.10 | 86 | 1008.5 |
| 20260504014037 | 9 | 129 | 6.4 | 6.4 | 0.00 | 0.10 | 0.10 | 88 | 1008.3 |
| 20260504013535 | 8 | 118 | 6.4 | 6.4 | 0.00 | 0.10 | 0.10 | 89 | 1008.4 |
| 20260504013032 | 8 | 122 | 6.4 | 8.0 | 0.00 | 0.10 | 0.10 | 90 | 1008.4 |
| 20260504012529 | 8 | 121 | 4.8 | 6.4 | 0.00 | 0.10 | 0.10 | 91 | 1008.4 |
| 20260504012027 | 8 | 105 | 6.4 | 6.4 | 0.00 | 0.10 | 0.10 | 92 | 1008.5 |
| 20260504011523 | 8 | 111 | 3.2 | 4.8 | 0.00 | 0.10 | 0.10 | 92 | 1008.4 |
| 20260504011020 | 8 | 109 | 3.2 | 4.8 | 0.00 | 0.10 | 0.10 | 92 | 1008.4 |
| 20260504010515 | 8 | 120 | 4.8 | 6.4 | 0.00 | 0.10 | 0.10 | 92 | 1008.3 |
| 20260504010011 | 8 | 104 | 3.2 | 6.4 | 0.00 | 0.10 | 0.10 | 92 | 1008.4 |
| 20260504005508 | 8 | 99 | 3.2 | 4.8 | 0.00 | 0.10 | 0.10 | 91 | 1008.7 |
| 20260504005006 | 9 | 132 | 3.2 | 6.4 | 0.00 | 0.10 | 0.10 | 91 | 1008.8 |
| 20260504004504 | 9 | 102 | 3.2 | 4.8 | 0.00 | 0.10 | 0.10 | 90 | 1008.6 |
| 20260504004000 | 9 | 126 | 4.8 | 6.4 | 0.00 | 0.10 | 0.10 | 90 | 1008.6 |
| 20260504003456 | 9 | 125 | 4.8 | 6.4 | 0.05 | 0.10 | 0.10 | 89 | 1008.7 |
| 20260504002953 | 9 | 124 | 4.8 | 6.4 | 0.18 | 0.10 | 0.10 | 88 | 1008.9 |
| 20260504002450 | 9 | 124 | 6.4 | 6.4 | 0.18 | 0.10 | 0.10 | 88 | 1008.9 |
| 20260504001948 | 9 | 105 | 3.2 | 6.4 | 0.05 | 0.08 | 0.08 | 87 | 1009.1 |
| 20260504001445 | 9 | 125 | 4.8 | 6.4 | 0.05 | 0.08 | 0.08 | 87 | 1009.1 |
| 20260504000942 | 9 | 128 | 4.8 | 6.4 | 0.00 | 0.05 | 0.05 | 87 | 1008.8 |
| 20260504000439 | 9 | 125 | 4.8 | 6.4 | 0.00 | 0.05 | 0.05 | 87 | 1009.1 |
| 20260503235936 | 9 | 123 | 4.8 | 6.4 | 0.00 | 0.05 | 0.05 | 86 | 1009.1 |
| 20260503235434 | 9 | 163 | 3.2 | 6.4 | 0.05 | 0.05 | 0.05 | 85 | 1009.2 |
| 20260503234931 | 9 | 170 | 3.2 | 6.4 | 0.18 | 0.05 | 0.05 | 85 | 1009.2 |
| 20260503234428 | 10 | 170 | 3.2 | 6.4 | 0.18 | 0.05 | 0.05 | 85 | 1009.4 |
| 20260503233926 | 10 | 190 | 4.8 | 6.4 | 0.18 | 0.05 | 0.05 | 83 | 1009.3 |
| 20260503233423 | 10 | 171 | 4.8 | 6.4 | 0.05 | 0.03 | 0.03 | 83 | 1009.2 |
| 20260503232919 | 10 | 211 | 4.8 | 8.0 | 0.05 | 0.00 | 0.00 | 82 | 1009.3 |
| 20260503232416 | 10 | 178 | 4.8 | 8.0 | 0.00 | 0.00 | 0.00 | 81 | 1009.1 |
| 20260503231914 | 10 | 181 | 4.8 | 9.7 | 0.00 | 0.00 | 0.00 | 80 | 1009.3 |
| 20260503231411 | 10 | 234 | 3.2 | 14.5 | 0.00 | 0.00 | 0.00 | 79 | 1009.4 |
| 20260503230907 | 10 | 287 | 6.4 | 20.9 | 0.00 | 0.00 | 0.00 | 76 | 1009.4 |
| 20260503230404 | 11 | 237 | 8.0 | 37.0 | 0.00 | 0.00 | 0.00 | 72 | 1009.4 |
| 20260503225901 | 11 | 152 | 6.4 | 11.3 | 0.00 | 0.00 | 0.00 | 64 | 1009.2 |
| 20260503225357 | 12 | 232 | 11.3 | 16.1 | 0.00 | 0.00 | 0.00 | 60 | 1008.9 |
| 20260503224854 | 12 | 187 | 6.4 | 6.4 | 0.00 | 0.00 | 0.00 | 60 | 1009.1 |
| 20260503224351 | 12 | 199 | 6.4 | 14.5 | 0.00 | 0.00 | 0.00 | 58 | 1009.1 |
| 20260503223849 | 12 | 154 | 6.4 | 14.5 | 0.00 | 0.00 | 0.00 | 57 | 1008.8 |
| 20260503223346 | 12 | 127 | 6.4 | 8.0 | 0.00 | 0.00 | 0.00 | 56 | 1008.7 |
| 20260503222841 | 12 | 137 | 6.4 | 11.3 | 0.00 | 0.00 | 0.00 | 55 | 1008.7 |
| 20260503222341 | 12 | 162 | 4.8 | 17.7 | 0.00 | 0.00 | 0.00 | 54 | 1008.5 |
| 20260503221838 | 12 | 149 | 8.0 | 9.7 | 0.00 | 0.00 | 0.00 | 54 | 1008.6 |
| 20260503221337 | 12 | 160 | 6.4 | 8.0 | 0.00 | 0.00 | 0.00 | 53 | 1008.6 |
| 20260503220832 | 12 | 163 | 4.8 | 16.1 | 0.00 | 0.00 | 0.00 | 52 | 1008.6 |
| 20260503220329 | 12 | 129 | 6.4 | 9.7 | 0.00 | 0.00 | 0.00 | 52 | 1008.6 |
| 20260503215826 | 12 | 142 | 6.4 | 8.0 | 0.00 | 0.00 | 0.00 | 52 | 1008.5 |
| 20260503215323 | 12 | 115 | 8.0 | 9.7 | 0.00 | 0.00 | 0.00 | 51 | 1008.5 |
| 20260503214821 | 12 | 115 | 4.8 | 8.0 | 0.00 | 0.00 | 0.00 | 51 | 1008.4 |
| 20260503214318 | 13 | 124 | 4.8 | 8.0 | 0.00 | 0.00 | 0.00 | 51 | 1008.6 |
| 20260503213815 | 13 | 142 | 4.8 | 11.3 | 0.00 | 0.00 | 0.00 | 52 | 1008.4 |
| 20260503213313 | 12 | 120 | 6.4 | 6.4 | 0.00 | 0.00 | 0.00 | 50 | 1008.3 |
| 20260503212809 | 12 | 127 | 8.0 | 8.0 | 0.00 | 0.00 | 0.00 | 50 | 1008.2 |
| 20260503212308 | 13 | 167 | 4.8 | 12.9 | 0.00 | 0.00 | 0.00 | 49 | 1008.5 |
| 20260503211805 | 13 | 129 | 8.0 | 9.7 | 0.00 | 0.00 | 0.00 | 50 | 1008.4 |
| 20260503211301 | 13 | 169 | 3.2 | 8.0 | 0.00 | 0.00 | 0.00 | 50 | 1008.5 |
| 20260503210801 | 13 | 145 | 4.8 | 9.7 | 0.00 | 0.00 | 0.00 | 49 | 1008.2 |
| 20260503210259 | 13 | 109 | 4.8 | 9.7 | 0.00 | 0.00 | 0.00 | 48 | 1008.4 |
| 20260503205754 | 13 | 110 | 6.4 | 8.0 | 0.00 | 0.00 | 0.00 | 49 | 1008.4 |
| 20260503205251 | 13 | 174 | 3.2 | 11.3 | 0.00 | 0.00 | 0.00 | 46 | 1008.5 |
| 20260503204747 | 13 | 167 | 4.8 | 9.7 | 0.00 | 0.00 | 0.00 | 46 | 1008.4 |
| 20260503204245 | 13 | 108 | 4.8 | 8.0 | 0.00 | 0.00 | 0.00 | 46 | 1008.6 |
| 20260503203742 | 13 | 96 | 4.8 | 11.3 | 0.00 | 0.00 | 0.00 | 45 | 1008.6 |
| 20260503203239 | 14 | 105 | 3.2 | 6.4 | 0.00 | 0.00 | 0.00 | 46 | 1008.6 |
| 20260503202736 | 14 | 109 | 4.8 | 8.0 | 0.00 | 0.00 | 0.00 | 45 | 1008.7 |
| 20260503202234 | 14 | 114 | 6.4 | 9.7 | 0.00 | 0.00 | 0.00 | 43 | 1008.8 |
| 20260503201732 | 14 | 163 | 4.8 | 9.7 | 0.00 | 0.00 | 0.00 | 44 | 1008.8 |
| 20260503201229 | 14 | 113 | 4.8 | 8.0 | 0.00 | 0.00 | 0.00 | 44 | 1008.8 |
| 20260503200726 | 14 | 124 | 6.4 | 14.5 | 0.00 | 0.00 | 0.00 | 42 | 1009.1 |
| 20260503200222 | 14 | 132 | 4.8 | 8.0 | 0.00 | 0.00 | 0.00 | 43 | 1009.2 |
| 20260503195719 | 14 | 123 | 4.8 | 11.3 | 0.00 | 0.00 | 0.00 | 41 | 1009.2 |
| 20260503195216 | 15 | 211 | 8.0 | 16.1 | 0.00 | 0.00 | 0.00 | 38 | 1009.2 |
| 20260503194713 | 15 | 159 | 6.4 | 8.0 | 0.00 | 0.00 | 0.00 | 40 | 1009.4 |
| 20260503194209 | 15 | 142 | 6.4 | 8.0 | 0.00 | 0.00 | 0.00 | 40 | 1009.5 |
| 20260503193705 | 15 | 238 | 11.3 | 11.3 | 0.00 | 0.00 | 0.00 | 38 | 1009.4 |
| 20260503193201 | 15 | 277 | 1.6 | 12.9 | 0.00 | 0.00 | 0.00 | 40 | 1009.7 |
| 20260503192657 | 15 | 111 | 8.0 | 19.3 | 0.00 | 0.00 | 0.00 | 43 | 1009.7 |
| 20260503192152 | 15 | 189 | 4.8 | 9.7 | 0.00 | 0.00 | 0.00 | 39 | 1009.8 |
| 20260503191649 | 15 | 238 | 19.3 | 25.7 | 0.00 | 0.00 | 0.00 | 39 | 1009.9 |
| 20260503191146 | 15 | 206 | 9.7 | 14.5 | 0.00 | 0.00 | 0.00 | 40 | 1010.1 |
| 20260503190643 | 14 | 203 | 6.4 | 8.0 | 0.00 | 0.00 | 0.00 | 42 | 1010.2 |
| 20260503190140 | 14 | 99 | 8.0 | 17.7 | 0.00 | 0.00 | 0.00 | 43 | 1010.3 |
| 20260503185637 | 14 | 153 | 6.4 | 20.9 | 0.00 | 0.00 | 0.00 | 41 | 1010.3 |
| 20260503185132 | 13 | 147 | 6.4 | 11.3 | 0.00 | 0.00 | 0.00 | 40 | 1010.4 |
| 20260503184627 | 13 | 125 | 8.0 | 11.3 | 0.00 | 0.00 | 0.00 | 42 | 1010.6 |
| 20260503184124 | 13 | 148 | 8.0 | 16.1 | 0.00 | 0.00 | 0.00 | 39 | 1010.5 |
| 20260503183620 | 13 | 122 | 8.0 | 20.9 | 0.00 | 0.00 | 0.00 | 41 | 1010.7 |
| 20260503183118 | 11 | 222 | 4.8 | 9.7 | 0.00 | 0.00 | 0.00 | 44 | 1010.7 |
| 20260503182616 | 9 | 209 | 4.8 | 17.7 | 0.00 | 0.00 | 0.00 | 53 | 1010.9 |
| 20260503182114 | 7 | 63 | 4.8 | 9.7 | 0.00 | 0.00 | 0.00 | 68 | 1010.9 |
| 20260503181611 | 7 | 10 | 8.0 | 9.7 | 0.00 | 0.00 | 0.00 | 70 | 1011.0 |
| 20260503181107 | 7 | 326 | 3.2 | 6.4 | 0.00 | 0.00 | 0.00 | 70 | 1011.1 |
| 20260503180605 | 7 | 20 | 3.2 | 4.8 | 0.00 | 0.00 | 0.00 | 72 | 1011.3 |
| 20260503175559 | 7 | 13 | 4.8 | 6.4 | 0.00 | 0.00 | 0.00 | 71 | 1011.3 |
| 20260503175056 | 7 | 23 | 6.4 | 6.4 | 0.00 | 0.00 | 0.00 | 71 | 1011.4 |
| 20260503174553 | 7 | 337 | 3.2 | 4.8 | 0.00 | 0.00 | 0.00 | 70 | 1011.5 |
| 20260503174049 | 7 | 23 | 1.6 | 4.8 | 0.00 | 0.00 | 0.00 | 70 | 1011.5 |
| 20260503173544 | 6 | 341 | 3.2 | 6.4 | 0.00 | 0.00 | 0.00 | 70 | 1011.6 |
| 20260503173041 | 6 | 304 | 6.4 | 9.7 | 0.00 | 0.00 | 0.00 | 74 | 1011.6 |
| 20260503172539 | 6 | 329 | 4.8 | 8.0 | 0.00 | 0.00 | 0.00 | 75 | 1011.7 |
| 20260503172036 | 6 | 326 | 4.8 | 9.7 | 0.00 | 0.00 | 0.00 | 74 | 1011.7 |
| 20260503171532 | 6 | 304 | 4.8 | 8.0 | 0.00 | 0.00 | 0.00 | 72 | 1011.9 |
| 20260503171030 | 6 | 302 | 8.0 | 9.7 | 0.00 | 0.00 | 0.00 | 74 | 1012.0 |
| 20260503170526 | 7 | 319 | 8.0 | 9.7 | 0.00 | 0.00 | 0.00 | 73 | 1011.8 |
| 20260503150918 | 7 | 339 | 11.3 | 14.5 | 0.00 | 0.00 | 0.00 | 73 | 1012.8 |
| 20260503150415 | 7 | 8 | 8.0 | 12.9 | 0.00 | 0.00 | 0.00 | 73 | 1012.8 |
| 20260503131308 | 9 | 96 | 4.8 | 8.0 | 0.00 | 0.00 | 0.00 | 55 | 1013.8 |
| 20260503130805 | 10 | 120 | 8.0 | 9.7 | 0.00 | 0.00 | 0.00 | 54 | 1013.9 |
| 20260503130303 | 9 | 101 | 6.4 | 8.0 | 0.00 | 0.00 | 0.00 | 57 | 1013.9 |
| 20260503110656 | 6 | 119 | 4.8 | 8.0 | 0.00 | 0.00 | 0.00 | 66 | 1013.9 |
| 20260503110154 | 5 | 102 | 3.2 | 8.0 | 0.00 | 0.00 | 0.00 | 68 | 1013.8 |
| 20260503100120 | 1 | 123 | 6.4 | 6.4 | 0.00 | 0.00 | 0.00 | 84 | 1013.7 |
| 20260503081510 | 2 | 102 | 4.8 | 6.4 | 0.00 | 0.00 | 0.00 | 80 | 1013.8 |
| 20260503081007 | 2 | 120 | 4.8 | 6.4 | 0.00 | 0.00 | 0.00 | 80 | 1013.9 |
| 20260503080503 | 2 | 115 | 4.8 | 6.4 | 0.00 | 0.00 | 0.00 | 80 | 1013.8 |
| 20260503072939 | 2 | 120 | 4.8 | 8.0 | 0.00 | 0.00 | 0.00 | 79 | 1013.7 |
| 20260503072437 | 2 | 115 | 3.2 | 8.0 | 0.00 | 0.00 | 0.00 | 80 | 1013.8 |
| 20260503071934 | 2 | 114 | 6.4 | 6.4 | 0.00 | 0.00 | 0.00 | 81 | 1013.8 |
| 20260503071430 | 2 | 117 | 6.4 | 8.0 | 0.00 | 0.00 | 0.00 | 81 | 1013.7 |
| 20260503070926 | 2 | 152 | 6.4 | 8.0 | 0.00 | 0.00 | 0.00 | 83 | 1013.7 |
| 20260503070424 | 2 | 127 | 6.4 | 6.4 | 0.00 | 0.00 | 0.00 | 83 | 1013.8 |
| 20260503054837 | 2 | 125 | 6.4 | 6.4 | 0.00 | 0.00 | 0.00 | 81 | 1014.0 |
| 20260503054333 | 2 | 134 | 4.8 | 6.4 | 0.00 | 0.00 | 0.00 | 81 | 1013.9 |
| 20260503053831 | 2 | 129 | 6.4 | 6.4 | 0.00 | 0.00 | 0.00 | 80 | 1014.2 |
| 20260503053329 | 3 | 119 | 4.8 | 6.4 | 0.00 | 0.00 | 0.00 | 80 | 1014.2 |
| 20260503052825 | 3 | 119 | 4.8 | 6.4 | 0.00 | 0.00 | 0.00 | 79 | 1014.3 |
| 20260503052322 | 3 | 122 | 6.4 | 6.4 | 0.00 | 0.00 | 0.00 | 79 | 1014.2 |
| 20260503051818 | 3 | 123 | 6.4 | 6.4 | 0.00 | 0.00 | 0.00 | 79 | 1014.4 |
| 20260503051315 | 3 | 130 | 6.4 | 6.4 | 0.00 | 0.00 | 0.00 | 79 | 1014.3 |
| 20260503050812 | 3 | 124 | 6.4 | 6.4 | 0.00 | 0.00 | 0.00 | 79 | 1014.3 |
| 20260503050308 | 3 | 118 | 4.8 | 6.4 | 0.00 | 0.00 | 0.00 | 78 | 1014.3 |
| 20260503045806 | 3 | 110 | 4.8 | 6.4 | 0.00 | 0.00 | 0.00 | 78 | 1014.6 |
| 20260503045305 | 3 | 109 | 4.8 | 8.0 | 0.00 | 0.00 | 0.00 | 77 | 1014.3 |
| 20260503044759 | 3 | 119 | 3.2 | 6.4 | 0.00 | 0.00 | 0.00 | 77 | 1014.4 |
| 20260503044256 | 3 | 121 | 4.8 | 6.4 | 0.00 | 0.00 | 0.00 | 76 | 1014.5 |
| 20260503043754 | 3 | 122 | 6.4 | 6.4 | 0.00 | 0.00 | 0.00 | 76 | 1014.6 |
| 20260503043251 | 4 | 109 | 6.4 | 6.4 | 0.00 | 0.00 | 0.00 | 74 | 1014.7 |
| 20260503042746 | 4 | 108 | 4.8 | 6.4 | 0.00 | 0.00 | 0.00 | 73 | 1014.8 |